Regional Weather Roundup
Issued by NWS

Home | Current Version | Previous Version | Graphics & Text | Print | Product List | Glossary On
Versions: 1 2 3 4 5 6 7 8 9 10 11 12 13 14 15 16 17 18 19 20 21 22 23 24 25 26 27
000
ASUS45 KSLC 220410
RWRUT

UTAH REGIONAL WEATHER ROUNDUP
NATIONAL WEATHER SERVICE SALT LAKE CITY UT
900 PM MST WED FEB 21 2018

UTZ001>011-023>025-220500-

NORTHERN UTAH

CITY           SKY/WX    TMP DP  RH WIND       PRES   REMARKS
BRIGHAM CITY   MOCLDY    20  14  76 E3        30.09F
HILL AFB         N/A     20   6  55 E13       30.05F WCI   7
LOGAN          MOCLDY     8   1  73 CALM      30.09F
OGDEN            N/A     19   8  62 S7        30.06F WCI  10
SALT LAKE CITY MOCLDY    26  14  60 SW3       30.08F
TOOELE VALLEY  CLOUDY    19  12  73 S9        30.08F WCI   9
WENDOVER         N/A     19   7  59 W3        30.07F
HEBER CITY       N/A     10   1  67 SE3       30.01S
WEST JORDAN      N/A     17   9  72 SW3       30.08S

$$

UTZ011>015-024>027-220500-

CENTRAL/NORTHEAST UTAH

CITY           SKY/WX    TMP DP  RH WIND       PRES   REMARKS
PROVO AIRPORT    N/A     18  12  77 S6        30.09F WCI  10
MOAB/CANYONLAN CLOUDY    33  16  49 NE8       30.02R WCI  26
DELTA            N/A     12   9  85 S3        30.07F
PRICE          CLOUDY    22   3  44 N6        29.99S WCI  14
VERNAL         CLOUDY    19  10  68 CALM      30.06S

$$

UTZ013>016-019>022-027-220500-

SOUTHERN UTAH

CITY           SKY/WX    TMP DP  RH WIND       PRES   REMARKS
BRYCE CANYON   CLOUDY    17  15  92 CALM      29.97R
CEDAR CITY     CLOUDY    25  16  68 E5        30.02R WCI  19
MILFORD        CLOUDY    16  12  84 W8        30.05S WCI   5
ST GEORGE      MOCLDY    38  20  48 S3        30.09R
HANKSVILLE     CLOUDY    32   3  29 NW5       30.05S WCI  27
BLANDING         N/A     31  22  69 CALM      30.07R

$$

REGIONAL REPORTS     COLORADO/ARIZONA

CITY           SKY/WX    TMP DP  RH WIND       PRES   REMARKS
CRAIG, CO      CLOUDY    16   9  74 CALM      30.04F
GRAND JUNCTION CLOUDY    32  20  61 CALM      30.03S
RIFLE, CO      CLOUDY    26  14  60 S3        30.02F
MONTROSE, CO   CLOUDY    29  18  63 N5        30.01F WCI  24
CORTEZ, CO     CLOUDY    31  27  85 CALM      29.99R
COLORADO CITY    N/A     28  18  64 NW6       30.07S WCI  22
PAGE, AZ       CLOUDY    38  16  40 W5        30.02R WCI  34
GRAND CANYON   CLOUDY    22  15  75 CALM      30.00R
KINGMAN, AZ    CLOUDY    38   5  25 E5        30.07S WCI  34
FLAGSTAFF, AZ    N/A     25   6  44 SW10      29.99R WCI  15

$$

REGIONAL REPORTS    NEVADA/IDAHO/WYOMING

CITY           SKY/WX    TMP DP  RH WIND       PRES   REMARKS
LAS VEGAS, NV    N/A     46  13  26 S3        30.08S
ELY, NY          N/A     17  12  80 SE6       29.98S WCI   9
ELKO, NV         N/A     17  11  77 CALM      30.01F
POCATELLO, ID    N/A     22  11  62 S3        30.06S
BURLEY, ID       N/A     14   7  73 S5        30.04F WCI   6
EVANSTON, WY     N/A      3  -4  72 E8        29.98F WCI -10
ROCK SPRINGS,    N/A      8   0  69 NE5       30.03F WCI   0

$$




USA.gov is the U.S. government's official web portal to all federal, state and local government web resources and services.